DW1345 Weather Reports


time (UTC)temp
C
wind
direction
speed
KPH
gust
KPH
rain 1hr
cm
rain 24hr
cm
rain mn
cm
humidity
%
barometer
mb
20260503171543 4 102 9.7 0.0 0.00 0.00 0.71 76 1000.7
20260503081553 2 237 8.0 0.0 0.00 0.00 0.33 86 1004.4
20260503071550 2 178 8.0 0.0 0.00 0.00 0.28 84 1004.2
20260503054540 1 304 4.8 0.0 0.00 0.00 0.15 89 1004.1
20260503053038 1 317 6.4 0.0 0.00 0.00 0.15 90 1004.3
20260503051536 1 308 8.0 0.0 0.00 0.00 0.15 90 1004.4
20260503050036 1 24 9.7 0.0 0.00 0.00 0.13 91 1004.5
20260503044547 0 284 3.2 0.0 0.00 0.00 0.10 92 1004.3
20260503043035 0 280 4.8 0.0 0.00 0.00 0.08 92 1004.3
20260503041537 0 264 6.4 0.0 0.00 0.00 0.08 93 1004.5
20260503040040 0 277 3.2 0.0 0.00 0.00 0.08 94 1004.3
20260503034533 0 277 3.2 0.0 0.00 0.00 0.08 93 1004.4
20260503033036 0 245 3.2 0.0 0.00 0.00 0.05 93 1004.4
20260503031531 0 242 4.8 0.0 0.00 0.00 0.05 93 1004.4
20260503030034 0 296 4.8 0.0 0.00 0.00 0.05 93 1004.7
20260503024536 0 301 0.0 0.0 0.00 0.00 0.05 93 1004.2
20260503023029 0 301 0.0 0.0 0.00 0.00 0.05 93 1004.4
20260503021528 0 301 1.6 0.0 0.00 0.00 0.05 93 1004.6
20260503020028 0 300 3.2 0.0 0.00 0.00 0.05 93 1004.7
20260503014530 0 299 6.4 0.0 0.00 0.00 0.05 93 1004.7
20260503013028 0 283 1.6 0.0 0.00 0.00 0.05 93 1004.6
20260503011532 0 285 3.2 0.0 0.00 0.00 0.05 93 1004.4
20260503010024 0 313 1.6 0.0 0.00 0.00 0.05 93 1004.5
20260503004524 0 234 3.2 0.0 0.00 0.00 0.05 93 1004.4
20260503003023 0 240 3.2 0.0 0.00 0.00 0.05 93 1004.6
20260503001522 0 284 3.2 0.0 0.00 0.00 0.05 93 1004.7
20260503000020 0 288 8.0 0.0 0.00 0.00 0.05 93 1004.6
20260502234531 0 299 6.4 0.0 0.00 0.00 0.05 92 1004.6
20260502233016 1 254 8.0 0.0 0.00 0.00 0.05 93 1004.4
20260502231515 1 272 8.0 0.0 0.00 0.00 0.03 92 1004.4
20260502230015 1 292 6.4 0.0 0.00 0.00 0.03 93 1004.5
20260502224512 1 201 3.2 0.0 0.00 0.00 0.00 92 1004.5
20260502223007 1 197 1.6 0.0 0.00 0.00 0.00 92 1004.5
20260502221505 1 249 0.0 0.0 0.00 0.00 0.00 92 1004.5
20260502220010 1 250 1.6 0.0 0.00 0.00 0.89 92 1004.7
20260502214502 1 242 1.6 0.0 0.00 0.00 0.89 91 1004.7
20260502213001 1 246 1.6 0.0 0.00 0.00 0.89 91 1004.7
20260502211600 1 346 0.0 0.0 0.00 0.00 0.89 90 1004.8
20260502210108 1 346 0.0 0.0 0.00 0.00 0.89 90 1004.7
20260502204609 1 346 0.0 0.0 0.00 0.00 0.89 91 1004.8
20260502203112 1 346 0.0 0.0 0.00 0.00 0.89 91 1004.8
20260502201557 1 346 0.0 0.0 0.00 0.00 0.89 90 1004.9
20260502200056 1 346 0.0 0.0 0.00 0.00 0.89 90 1004.9
20260502194556 1 346 0.0 0.0 0.00 0.00 0.89 90 1004.9
20260502193052 1 325 3.2 0.0 0.00 0.00 0.89 90 1004.5
20260502191553 1 289 0.0 0.0 0.00 0.00 0.86 89 1004.4
20260502184548 1 288 4.8 0.0 0.00 0.00 0.84 88 1004.5
20260502183056 1 302 3.2 0.0 0.00 0.00 0.84 87 1004.3
20260502181544 2 294 8.0 0.0 0.00 0.00 0.81 86 1004.2